Tracking 28126 objects as of 2-Oct-2023
HD Live streaming from Space Station
objects crossing your sky now

STARLINK-3263

Track STARLINK-3263 now!
10-day predictions
STARLINK-3263 is classified as:


NORAD ID: 50196
Int'l Code: 2021-125AS
Perigee: 545.7 km
Apogee: 548.1 km
Inclination: 53.2 °
Period: 95.4 minutes
Semi major axis: 6917 km
RCS: Unknown
Launch date: December 18, 2021
Source: United States (US)
Launch site: AIR FORCE WESTERN TEST RANGE (AFWTR)
Your satellite tracking list
Your tracking list is empty




NASA's NSSDC Master Catalog

Two Line Element Set (TLE):
1 50196U 21125AS  23275.02317154  .00000886  00000-0  73788-4 0  9993
2 50196  53.2170 273.0390 0001744 107.2565 252.8618 15.08829204101943
Source of the keplerian elements: AFSPC